Weather History for Monterrey Airport, Mexico

Change the Weather History Date:

Sunday, February 17, 2013

  Actual Average Record
Temperature  
Mean Temperature 60 °F -  
Max Temperature 75 °F 77 °F 87 °F (2014)
Min Temperature 46 °F 55 °F 60 °F (2014)
Degree Days  
Heating Degree Days 4    
Growing Degree Days 10 (Base 50)    
Moisture  
Dew Point 44 °F    
Average Humidity 56    
Maximum Humidity 76    
Minimum Humidity 31    
Precipitation  
Precipitation 0.00 in - - ()
Sea Level Pressure  
Sea Level Pressure 30.07 in    
Wind  
Wind Speed 4 mph ()    
Max Wind Speed 15 mph    
Max Gust Speed -    
Visibility 9.9 miles    
Events      
Averages and records for this station are not official NWS values.
T = Trace of Precipitation, MM = Missing Value Source: Averaged Metar Reports

Daily Weather History Graph

Daily Weather History Graph

Search for Another Location

Airport:

Trip Planner

Search our weather history database for the weather conditions in past years. The results will help you decide how hot, cold, wet, or windy it might be!

Date:

Astronomy

Feb. 17, 2013 Rise Set
Actual Time 7:14 AM CST 6:35 PM CST
Civil Twilight 6:50 AM CST 6:59 PM CST
Nautical Twilight 6:24 AM CST 7:26 PM CST
Astronomical Twilight 5:57 AM CST 7:53 PM CST
Moon 11:54 AM CST (2/17) 12:48 AM CST (2/17)
Length of Visible Light 12h 08m
Length of Day
11h 21m
Waxing Crescent, 49% of the Moon is Illuminated
Feb 17
Waxing Crescent
Feb 17
First Quarter
Feb 25
Full
Mar 4
Last Quarter
Mar 11
New

Hourly Weather History & Observations

Time (CST) Temp. Dew Point Humidity Pressure Visibility Wind Dir Wind Speed Gust Speed Precip Events Conditions
4:57 AM 48.2 °F 41.0 °F 76% 30.21 in 7.0 mi Calm Calm - N/A   Clear
5:40 AM 46.4 °F 39.2 °F 76% 30.15 in 8.0 mi Calm Calm - N/A   Scattered Clouds
6:41 AM 46.4 °F 39.2 °F 76% 30.20 in 8.0 mi Calm Calm - N/A   Scattered Clouds
7:21 AM 48.2 °F 41.0 °F 76% 30.21 in 8.0 mi Calm Calm - N/A   Mostly Cloudy
7:40 AM 50.0 °F 39.2 °F 66% 30.21 in 8.0 mi Calm Calm - N/A   Mostly Cloudy
8:47 AM 51.8 °F 41.0 °F 67% 30.17 in 8.0 mi Calm Calm - N/A   Overcast
9:40 AM 55.4 °F 46.4 °F 72% 30.22 in 8.0 mi Calm Calm - N/A   Mostly Cloudy
10:40 AM 57.2 °F 44.6 °F 63% 30.19 in 8.0 mi Calm Calm - N/A   Clear
11:42 AM 60.8 °F 42.8 °F 52% 30.11 in 8.0 mi ESE 8.1 mph - N/A   Clear
12:40 PM 62.6 °F 44.6 °F 52% 30.11 in 8.0 mi East 6.9 mph - N/A   Clear
1:40 PM 68.0 °F 44.6 °F 43% 30.06 in 8.0 mi SE 15.0 mph - N/A   Clear
2:40 PM 71.6 °F 44.6 °F 38% 29.96 in 10.0 mi ESE 15.0 mph - N/A   Clear
3:40 PM 73.4 °F 44.6 °F 36% 29.98 in 10.0 mi SE 13.8 mph - N/A   Clear
4:40 PM 75.2 °F 44.6 °F 34% 29.96 in 10.0 mi ESE 9.2 mph - N/A   Clear
5:41 PM 75.2 °F 42.8 °F 31% 29.91 in 15.0 mi SE 11.5 mph - N/A   Clear
6:40 PM 71.6 °F 44.6 °F 38% 29.95 in 15.0 mi SE 9.2 mph - N/A   Clear
7:40 PM 69.8 °F 46.4 °F 43% 29.95 in 12.0 mi SSE 10.4 mph - N/A   Clear
8:40 PM 68.0 °F 48.2 °F 49% 29.91 in 12.0 mi SSE 15.0 mph - N/A   Clear
9:40 PM 66.2 °F 48.2 °F 52% 29.97 in 12.0 mi SE 13.8 mph - N/A   Clear
10:45 PM 62.6 °F 50.0 °F 63% 29.99 in 12.0 mi ESE 12.7 mph - N/A   Clear
11:40 PM 62.6 °F 50.0 °F 63% 30.05 in 12.0 mi SE 11.5 mph - N/A   Clear